Location: ??????????
(48.4699°N, 37.9573°E)
Time: 03:13:32
(UTC+00:00)

Cosmos 1627 Rocket - Pass Details

Date: 20 January 2021
Orbit: 951 x 1003 km, 82.9° (Epoch: 24 February)

Event Time Altitude Azimuth Distance (km) Brightness Sun altitude
Rises 16:37:41 0° 183° (S) 3,626 7.6 -24.4°
Reaches altitude 10° 16:40:09 10° 183° (S) 2,690 6.9 -24.8°
Maximum altitude 16:46:19 82° 97° (E) 987 4.3 -25.8°
Drops below altitude 10° 16:52:36 10° 11° (N) 2,744 6.7 -26.8°
Sets 16:55:08 0° 10° (N) 3,704 7.4 -27.3°
